The Dilly Family's Weather Page
McMurray, PA 15317   Weather
Using a La Crosse Technology Model 2315 Weather Station

  Local Radar

Local Radar

  Graphs, Details
Detailed Weather
Detailed Reports
Mobile Version of This Page
Brief Version of This Page
  Maps
Temperature
Heat Index
Windchill
Humidity
Radar
Dew Point
Wind
Visibility
Visible Satellite
Satellite
Fronts
Snow Depth
Jet Stream
Flight Rules
  Forecast Maps
Temperature Forecast
Maximum Temperature Forecast
Minimum Temperature Forecast
Dewpoint Forecast
Prevalent Weather
12Hr Probability of Precip.
Sky Cover
  Health Maps
UV Forecast
Air Quality
Peak Air Quality Index
  Weather Station
La Crosse Technology
 
 
Weather Underground PWS KPAMCMUR4
KPAMCMUR4 Dashboard
 

HeavyWeather Data
WeatherForYou.com METAR
Worldwide Station List METAR
Meteorological Products Processed At The NWSTG
Stickers

  Current Conditions [Select Refresh to Update]

Updated: 5:19pm on 12/18/14

Currently:
28.5°

Clear
Overcast

High: 29.8° 
(1:37pm) 
Low: 27.6° 
(7:31am)
Wind: 0 mph from the W
Gust: 0 mph
Today's High Wind: 14 mph (1:16am)
Humidity: 78%
Pressure: 30.12 in  (Steady) 
Pressure Rate: 0.001 in/hr
Dew Point: 22.5°
Wind Chill: 28.5°
Heat Index (feels like): 32.5°
Comfort Level: Uncomfortably Cold
Temperature Rate:  -0.03°/hr
 
  5 Day Forecast
 
Thu Fri Sat Sun Mon
Clear Clear Clear Clear Clear
Mostly Cloudy Mostly Cloudy Mostly Cloudy Partly Cloudy Mostly Cloudy
34° 34° 34° 41° 39°
27° 19° 25° 30° 30°

  Records and Normals
 
Temperature Forecast Normal Record
High 34° 45° 59°
(2006)
Low 27° 26° 12°
(2000)
 
  Almanac
Sunrise:  
7:37am
Moonrise: 
3:49am

Moon Phase:
13%

Sunset: 
4:56pm
Moonset:  
2:36pm
 
  Weather Underground     KPAMCMUR4

  Weather Advisories
No Warning
Full Advisory Text...
  Weather Map

 
  Web Cams   (Northerly View)
Northerly view toward Pittsburgh.
 
  Rainfall Totals
Hourly Rain 0.00 in
Daily Rain 0.00 in
Monthly Rain 4.87 in
Yearly Rain 37.34 in
Normal Rain, month to date       0.00 in
Normal Rain, year to date 0.00 in
 
 
Weather.com
WeatherUnderground NorthEast Fronts
WeatherUnderground NorthEast Radar
WeatherBug NorthEast Radar
WeatherBug, Peters HS
WPXI Weather
KDKA Weather
WTEA Weather
Intellacast Canonsburg
AccuWeather
Yahoo, McMurray
Twitter, Pittsburgh
Fox53 Radar
Time and Date, Pittsburgh
NOAA Weather Pitt
FilghtStats PIT
NWS Thompsonville
USGS Tides and Temperature at Manasquan
NWS US Radar - Loop
  Local Weather Exchange Network
Station ID

City 
(Click for Map Location)

Neighborhood 
(Click for History)
Last Update (Date & Time)

Temperature
 (°)

Dew
Point (°)
Humidity 
(%)
Wind 
(mph)
from the Wind Gust 
(mph) 
Pressure (in) Hourly
Rain (in)
KPACANON4 Canonsburg Morgan's Point 12/18 17:15:37 28.2 22.0 77 7 NW 0 29.92 0.00
KPACANON7 Canonsburg Scenery Circle 12/18 17:15:50 29.8 23.0 76 0 North 0 30.21 0.00
KPACANON5 Canonsburg Canonsburg 12/18 17:19:59 30.0 24.0 78 0 South 0 30.14 0.00
KPAMCMUR4 McMurray Thompsonville-McMurray 12/18 17:19:15 28.5 22.0 78 0 West 0 30.12 0.00
KPACANON6 Canonsburg Sunset Acres, McMurray PA KPACANON6 12/18 17:16:21 28.4 24.0 85 5 WNW 0 30.13 0.00
KPAMCMUR3 McMurray St. Benedict the Abbot 12/18 17:20:04 28.4 23.0 81 4 SW 7 30.17 0.00
KPABRIDG2 Bridgeville Hunting Ridge 12/18 17:15:03 28.4 22.0 76 4 NNW 5 28.96 0.00
KPAEIGHT3 Eighty Four Nottingham Twp. 12/18 17:20:08 27.3 21.0 76 7 West 7 30.24 0.00
KPAVENET5 Venetia Willamar 12/18 17:04:56 27.1 23.0 83 5 SSW 0 30.06 0.00
KPABRIDG1 Bridgeville Olde Orchard South Fayette Bridgeville 12/18 17:20:03 28.9 23.0 78 0 SE 0 30.09 0.00
KPAVENET3 Venetia Bower Hill Rd 12/18 17:20:00 28.7 24.0 83 0 West 0 30.21 0.00
KPABETHE4 Bethel Park Bethel Park, PA - Terrasurv 12/18 17:15:57 27.3 23.0 84 4 SW 0 30.15 0.00
KPABETHE3 Bethel Park Bethel Park 12/18 17:15:17 28.6 24.0 83 2 West 6 30.20 0.00
KPAWASHI5 Washington Cameron Estates/South Strabane 12/18 17:11:13 26.7 21.0 80 6 SW 0 30.16 0.00
KPAVENET4 Venetia Sugar Run Road 12/18 17:20:05 27.8 16.0 62 0 NW 2 30.00 0.00
KPAPITTS89 Pittsburgh Washington Road 12/18 17:15:45 32.4 25.0 73 0 North 0 30.27 0.00
KPAMTLEB2 Mount Lebanon Mount Lebanon 12/18 17:20:07 28.2 6.0 38 2 South 0 30.08 0.00
KPASCOTT2 Scott Township Scott Township Neighborhood Weather 12/18 17:20:02 31.1 16.0 53 2 ESE 6 30.22 0.00
KPAPITTS87 Pittsburgh Mt. Lebanon, PA 12/18 17:20:08 28.0 23.0 78 0 SW 2 30.12 0.00
KPAPITTS50 Pittsburgh Dormont 12/18 17:20:00 29.3 22.0 75 0 NW 2 29.94 0.00
KPAPITTS88 Pittsburgh Village Green Drive 12/18 17:15:31 29.3 23.0 76 0 North 0 30.23 0.00
KPAPITTS58 Pittsburgh Robinson Township 12/18 17:20:01 28.2 22.0 79 4 WSW 4 30.14 0.00
KPAIMPER5 Imperial Imperial 12/18 17:20:08 29.2 23.0 77 0 North 0 30.13 0.00
KPAIMPER1 Imperial Imperial Neighborhood Weather 12/18 17:16:21 28.5 23.0 80 0 WNW 0 30.21 0.00
KPAIMPER4 Imperial Walden Woods 12/18 17:19:58 28.9 21.0 71 0 SW 0 29.82 0.00
KPAPITTS46 Pittsburgh Baldwin 12/18 17:20:00 29.3 23.0 77 0 North 0 30.16 0.00
KPAPITTS62 Pittsburgh Crafton Heights 12/18 17:20:03 28.7 20.0 70 0 SSE 0 30.12 0.00
KPACLAIR2 Clairton Jefferson Hills 12/18 17:19:45 29.5 22.0 73 0 SSW 0 30.19 0.00
KPAWASHI2 Washington South Franklin, Alamae Lakes 12/18 17:15:48 27.0 23.0 84 7 West 8 30.20 0.00
KPABURGS2 Burgsttown Pa Burgettstown PA 12/18 17:14:15 28.6 27.0 92 4 WSW 0 30.09 0.00
KPAMUNHA2 Munhall Lower Gates Manor 12/18 17:11:38 28.9 22.0 75 2 South 0 30.15 0.00
KPAPITTS56 Pittsburgh Carnegie Mellon University 12/18 17:11:17 30.1 24.0 77 1 WSW 6 --- 0.00
KPAPITTS75 Pittsburgh Shadyside 12/18 17:10:15 31.5 25.0 77 2 WSW 5 30.20 0.00
KPAPITTS33 Pittsburgh Squirrel Hill 12/18 17:20:00 32.5 0.0 0 0 North 0 29.34 0.00
KAFJ Washington Official Station 12/18 17:15:00 27.0 19.0 74 5 WSW --- 30.17 ---
KAGC Pittsburgh Allegheny Co. Official Station 12/18 16:53:00 28.0 19.0 69 10 West --- 30.21 ---
KPIT Pittsburgh Official Station 12/18 16:51:00 29.0 21.0 72 9 West --- 30.22 ---
KHLG Wheeling Official Station 12/18 16:53:00 27.0 20.0 75 9 West --- 30.22 ---
  Full Advisory Text
No Warnings

12/18/14 4+ 5:19pm   - http://weatherstation.wunderground.com/weatherstation/updateweatherstation.php?action=updateraw&ID=KPASMITH2&PASSWORD=&dateutc=2010-07-05+22%3A09%3A33&winddir=W&tempf=28.5&windspeedmph=0&humidity=78&dewptf=22.5&baromin=30.12&rainin=0.00&dailyrainin=0.00

Ambient Weather and Weather Underground
 Never base important decisions on this or any weather information obtained from the Internet
Updated Automatically by Ambient Weather's Virtual Weather Station  V14.00

Template updated: 5:35 PM 6/9/2011